Tracking 28799 objects as of 18-Apr-2024
HD Live streaming from Space Station
objects crossing your sky now

STARLINK-1541

Track STARLINK-1541 now!
10-day predictions
STARLINK-1541 is classified as:


NORAD ID: 46052
Int'l Code: 2020-055AB
Perigee: 553.7 km
Apogee: 554.9 km
Inclination: 53.1 °
Period: 95.6 minutes
Semi major axis: 6925 km
RCS: Unknown
Launch date: August 7, 2020
Source: United States (US)
Launch site: AIR FORCE EASTERN TEST RANGE (AFETR)
Your satellite tracking list
Your tracking list is empty




NASA's NSSDC Master Catalog

Two Line Element Set (TLE):
1 46052U 20055AB  24108.88161389  .00005637  00000-0  39696-3 0  9995
2 46052  53.0551 337.7732 0000864 109.6045 250.5037 15.06407004204884
Source of the keplerian elements: AFSPC